Regional Weather Roundup
Issued by NWS State College, PA

Home | Current Version | Previous Version | Text Only | Print | Product List | Glossary Off
Versions: 1 2 3 4 5 6 7 8 9 10 11 12 13 14 15 16 17 18 19 20 21 22 23 24 25 26 27 28 29 30 31 32 33 34 35 36 37 38 39 40 41 42 43 44 45 46 47 48 49 50

066
ASUS41 KCTP 211803
RWRCTP

REGIONAL WEATHER ROUNDUP
NATIONAL WEATHER SERVICE STATE COLLEGE PA
100 PM EST TUE NOV 21 2017

Note: "fair" indicates few or no clouds below 12,000 feet with no
significant weather and/or obstructions to visibility.

* = STATION THAT DOES NOT REPORT PRECIPITATION /E.G. RAIN...SNOW...ETC/
    THUNDER OR FOG.

PAZ002>004-007>009-013>016-020>023-029>032-211900-
WESTERN PENNSYLVANIA

CITY           SKY/WX    TMP DP  RH WIND       PRES   REMARKS
ERIE           SUNNY     53  27  36 S25G36    29.79S
MEADVILLE      SUNNY     48  26  42 SW16G22   29.83F
FRANKLIN*      SUNNY     52  25  35 SW17G30   29.84F
NEW CASTLE     FAIR      54  25  32 S10G22    29.87F
BEAVER COUNTY  NOT AVBL
BUTLER*        SUNNY     53  28  38 SW17G26   29.90F
PITTSBURGH INT PTSUNNY   53  28  38 SW15G28   29.91F
PITTSBURGH     CLOUDY    54  25  32 SW18G26   29.92F
INDIANA*       SUNNY     54  30  40 SW15G23   29.96S
LATROBE        MOSUNNY   55  28  35 SW17G32   29.95F
WASHINGTON CO* SUNNY     54  28  36 SW15G23   29.96F
$$

PAZ004>006-010>012-017>019-024>028-033>037-041-042-045-046-049>053-211900-
CENTRAL PENNSYLVANIA

CITY           SKY/WX    TMP DP  RH WIND       PRES   REMARKS
BRADFORD       SUNNY     48  24  39 SW17G29   29.83F
DUBOIS         SUNNY     51  26  37 SW15G25   29.87F
CLEARFIELD     SUNNY     51  25  36 SW16G24   29.90S
JOHNSTOWN      CLOUDY    51  25  36 SW16G29   29.92F
ALTOONA        CLOUDY    56  25  30 SW23G35   29.94F
STATE COLLEGE  SUNNY     52  28  40 S13G23    29.93F
WILLIAMSPORT   SUNNY     54  28  36 S13       29.93F
SELINSGROVE    SUNNY     51  29  42 S9        29.99F
FT INDIANTOWN  PTSUNNY   53  28  38 S7        30.02F
CAPITAL CITY   SUNNY     56  26  31 S8        30.01F
HARRISBURG     MOSUNNY   56  31  38 S3        30.01F
YORK           MOSUNNY   52  29  41 SW10      30.02F
$$

PAZ038>040-043-044-047-048-054-055-060>062-067>071-211900-
EASTERN PENNSYLVANIA

CITY           SKY/WX    TMP DP  RH WIND       PRES   REMARKS
SCRANTON       SUNNY     56  23  27 SW9G22    29.96F
MOUNT POCONO   SUNNY     48  24  39 S15G22    29.98F
ALLENTOWN      SUNNY     57  28  33 SW12      30.03F
QUAKERTOWN*    CLEAR     54  32  43 S8        30.05F
READING        SUNNY     55  33  43 SW10      30.02F
LANCASTER      MOSUNNY   54  31  41 SW7       30.03F
COATESVILLE    PTCLDY    54  30  40 VRB6G15   30.05F
POTTSTOWN      SUNNY     53  30  41 S9        30.06F
BLUE BELL      SUNNY     55  32  41 S13       30.07F
DOYLESTOWN     SUNNY     55  30  38 VRB7      30.04F
WILLOW GROVE   NOT AVBL
NORTH PHILA    MOSUNNY   58  31  35 SW13G24   30.08F
PHILADELPHIA   PTSUNNY   57  29  34 S15G25    30.08F
$$




USA.gov is the U.S. government's official web portal to all federal, state and local government web resources and services.